GW4795 Weather Reports


time (UTC)temp
F
wind
direction
speed
knots
gust
knots
rain 1hr
in
rain 24hr
in
rain mn
in
humidity
%
barometer
mb
20260510053010 58 350 0.9 1.7 0.00 0.00 0.00 78 1016.6
20260510052508 58 300 0.9 1.7 0.00 0.00 0.00 78 1016.6
20260510052007 58 319 0.9 1.7 0.00 0.00 0.00 77 1016.6
20260510051512 58 300 0.0 1.7 0.00 0.00 0.00 77 1016.7
20260510051005 58 288 0.0 1.7 0.00 0.00 0.00 77 1016.7
20260510050504 58 298 0.0 1.7 0.00 0.00 0.00 78 1016.6
20260510050010 58 295 0.0 1.7 0.00 0.00 0.00 77 1016.6
20260510045506 59 295 0.0 1.7 0.00 0.00 0.00 77 1016.6
20260510045005 59 295 0.0 0.9 0.00 0.00 0.00 77 1016.5
20260510044514 59 284 0.9 0.9 0.00 0.00 0.00 75 1016.6
20260510044007 59 288 0.0 1.7 0.00 0.00 0.00 74 1016.6
20260510043505 59 288 0.0 1.7 0.00 0.00 0.00 74 1016.5
20260510043021 60 288 0.0 1.7 0.00 0.00 0.00 74 1016.4
20260510042503 60 288 0.0 1.7 0.00 0.00 0.00 73 1016.4
20260510042005 60 288 0.0 1.7 0.00 0.00 0.00 73 1016.4
20260510041516 60 288 0.0 1.7 0.00 0.00 0.00 73 1016.4
20260510041003 61 288 0.0 1.7 0.00 0.00 0.00 72 1016.5
20260510040502 61 288 0.0 1.7 0.00 0.00 0.00 72 1016.4
20260510040014 61 288 0.0 1.7 0.00 0.00 0.00 71 1016.4
20260510035506 61 288 0.0 1.7 0.00 0.00 0.00 70 1016.4
20260510035004 61 288 0.0 1.7 0.00 0.00 0.00 69 1016.4
20260510034514 62 266 0.9 1.7 0.00 0.00 0.00 68 1016.5
20260510034004 62 251 0.0 1.7 0.00 0.00 0.00 68 1016.5
20260510033506 62 251 0.0 1.7 0.00 0.00 0.00 67 1016.5
20260510033014 62 251 0.0 1.7 0.00 0.00 0.00 66 1016.6
20260510032507 63 251 0.0 1.7 0.00 0.00 0.00 66 1016.5
20260510032006 63 251 0.0 0.0 0.00 0.00 0.00 66 1016.6
20260510031533 63 251 0.0 1.7 0.00 0.00 0.00 65 1016.6
20260510031004 63 251 0.0 1.7 0.00 0.00 0.00 64 1016.6
20260510030505 63 251 0.0 1.7 0.00 0.00 0.00 65 1016.6
20260510030022 64 251 0.0 1.7 0.00 0.00 0.00 65 1016.6
20260510025507 64 254 0.0 1.7 0.00 0.00 0.00 65 1016.7
20260510025007 64 252 0.0 1.7 0.00 0.00 0.00 64 1016.6
20260510024527 64 252 0.0 1.7 0.00 0.00 0.00 63 1016.7
20260510024006 64 286 0.0 1.7 0.00 0.00 0.00 64 1016.8
20260510023503 64 325 0.0 0.9 0.00 0.00 0.00 63 1016.8
20260510023017 64 264 0.9 1.7 0.00 0.00 0.00 64 1016.8
20260510022507 64 285 0.0 2.6 0.00 0.00 0.00 63 1016.8
20260510022007 64 261 0.9 2.6 0.00 0.00 0.00 63 1017.0
20260510021517 64 325 1.7 2.6 0.00 0.00 0.00 62 1016.8
20260510021003 65 262 0.9 2.6 0.00 0.00 0.00 62 1017.0
20260510020503 65 305 0.9 3.5 0.00 0.00 0.00 62 1017.2
20260510020004 65 255 0.9 6.1 0.00 0.00 0.00 62 1017.3
20260510015504 65 286 1.7 6.1 0.00 0.00 0.00 62 1017.3
20260510015002 65 289 1.7 6.1 0.00 0.00 0.00 62 1017.3
20260510014508 65 276 1.7 7.0 0.00 0.00 0.00 62 1017.3
20260510014007 65 250 3.5 7.0 0.00 0.00 0.00 61 1017.5
20260510013502 65 223 1.7 5.2 0.00 0.00 0.00 60 1017.5
20260510013012 66 261 2.6 6.1 0.00 0.00 0.00 60 1017.6
20260510012505 66 288 2.6 6.1 0.00 0.00 0.00 61 1017.7
20260510012007 66 275 2.6 5.2 0.00 0.00 0.00 62 1017.7
20260510011530 66 287 1.7 4.3 0.00 0.00 0.00 61 1017.6
20260510011007 66 217 1.7 3.5 0.00 0.00 0.00 61 1017.9
20260510010504 66 306 1.7 6.1 0.00 0.00 0.00 61 1017.8
20260510010004 66 255 2.6 7.0 0.00 0.00 0.00 61 1017.8
20260510005504 66 288 2.6 7.0 0.00 0.00 0.00 60 1017.8
20260510005004 67 315 2.6 6.1 0.00 0.00 0.00 61 1018.0
20260510004510 67 256 3.5 7.8 0.00 0.00 0.00 60 1017.9
20260510004003 67 256 3.5 7.8 0.00 0.00 0.00 59 1017.8
20260510003503 67 331 2.6 6.1 0.00 0.00 0.00 61 1017.8
20260510003029 67 273 2.6 7.8 0.00 0.00 0.00 60 1017.9
20260510002506 67 236 2.6 7.8 0.00 0.00 0.00 59 1018.0
20260510002008 67 195 3.5 7.0 0.00 0.00 0.00 58 1018.1
20260510001520 68 253 1.7 7.0 0.00 0.00 0.00 57 1018.3
20260510001006 68 278 1.7 7.0 0.00 0.00 0.00 58 1018.2
20260510000507 68 237 2.6 7.8 0.00 0.00 0.00 57 1018.1
20260510000023 68 175 1.7 7.8 0.00 0.00 0.00 57 1018.3
20260509235509 68 244 1.7 7.0 0.00 0.00 0.00 56 1018.3
20260509235003 68 287 2.6 7.0 0.00 0.00 0.00 57 1018.4
20260509234521 68 314 2.6 8.7 0.00 0.00 0.00 57 1018.5
20260509234004 68 227 1.7 8.7 0.00 0.00 0.00 59 1018.5
20260509233503 69 255 2.6 7.0 0.00 0.00 0.00 56 1018.4
20260509233017 69 300 2.6 7.0 0.00 0.00 0.00 58 1018.4
20260509232504 68 309 1.7 7.8 0.00 0.00 0.00 58 1018.6
20260509232003 68 263 2.6 7.8 0.00 0.00 0.00 55 1018.6
20260509231528 69 329 4.3 8.7 0.00 0.00 0.00 56 1018.8
20260509231007 68 279 3.5 8.7 0.00 0.00 0.00 55 1018.9
20260509230506 68 272 1.7 8.7 0.00 0.00 0.00 56 1018.8
20260509230029 69 185 2.6 9.6 0.00 0.00 0.00 55 1018.9
20260509225506 69 281 4.3 10.4 0.00 0.00 0.00 55 1019.1
20260509225008 69 271 5.2 9.6 0.00 0.00 0.00 54 1019.2
20260509224526 69 221 4.3 8.7 0.00 0.00 0.00 54 1019.1
20260509224003 69 215 3.5 8.7 0.00 0.00 0.00 53 1019.1
20260509223504 69 208 3.5 8.7 0.00 0.00 0.00 53 1019.2
20260509223010 69 215 1.7 7.0 0.00 0.00 0.00 53 1019.1
20260509222503 69 257 2.6 7.8 0.00 0.00 0.00 54 1019.2
20260509222003 69 258 3.5 7.8 0.00 0.00 0.00 52 1019.3
20260509221516 69 272 3.5 7.8 0.00 0.00 0.00 54 1019.3
20260509221004 69 302 4.3 7.8 0.00 0.00 0.00 53 1019.4
20260509220506 70 253 2.6 7.8 0.00 0.00 0.00 53 1019.5
20260509220019 70 254 3.5 7.8 0.00 0.00 0.00 1019.4
20260509215507 70 283 2.6 7.8 0.00 0.00 0.00 1019.5
20260509215007 69 333 5.2 8.7 0.00 0.00 0.00 1019.5
20260509214523 70 227 4.3 8.7 0.00 0.00 0.00 1019.6
20260509214006 70 244 2.6 7.8 0.00 0.00 0.00 52 1019.6
20260509213511 70 325 3.5 7.8 0.00 0.00 0.00 52 1019.6
20260509213024 71 202 3.5 7.8 0.00 0.00 0.00 51 1019.7
20260509212503 71 240 4.3 7.8 0.00 0.00 0.00 49 1019.7
20260509212008 72 217 2.6 7.8 0.00 0.00 0.00 49 1019.8
20260509211514 72 152 1.7 7.8 0.00 0.00 0.00 50 1019.8
20260509211004 73 287 3.5 7.8 0.00 0.00 0.00 51 1019.8
20260509210504 72 244 4.3 7.8 0.00 0.00 0.00 55 1019.7
20260509210022 72 277 0.9 6.1 0.00 0.00 0.00 51 1019.7
20260509205506 72 352 2.6 6.1 0.00 0.00 0.00 52 1019.7
20260509205007 72 256 1.7 7.0 0.00 0.00 0.00 51 1019.6
20260509204521 71 350 2.6 7.0 0.00 0.00 0.00 50 1019.8
20260509204010 71 282 2.6 6.1 0.00 0.00 0.00 50 1019.8
20260509203510 71 318 1.7 4.3 0.00 0.00 0.00 52 1019.8
20260509203028 70 9 2.6 6.1 0.00 0.00 0.00 51 1020.0
20260509202509 70 312 3.5 6.1 0.00 0.00 0.00 51 1020.0
20260509202010 70 317 2.6 5.2 0.00 0.00 0.00 53 1020.1
20260509201511 70 299 2.6 6.1 0.00 0.00 0.00 56 1020.2
20260509201004 70 291 2.6 7.0 0.00 0.00 0.00 55 1020.4
20260509200504 70 219 4.3 7.0 0.00 0.00 0.00 53 1020.5
20260509200021 70 303 1.7 7.0 0.00 0.00 0.00 54 1020.6
20260509195508 70 315 2.6 7.0 0.00 0.00 0.00 54 1020.7
20260509195005 70 268 2.6 7.0 0.00 0.00 0.00 52 1020.8
20260509194526 70 290 2.6 7.0 0.00 0.00 0.00 56 1020.8
20260509194008 70 292 3.5 7.0 0.00 0.00 0.00 54 1020.9
20260509193508 70 252 3.5 7.0 0.00 0.00 0.00 54 1021.0
20260509193024 70 284 2.6 6.1 0.00 0.00 0.00 54 1021.0
20260509192506 70 182 1.7 5.2 0.00 0.00 0.00 53 1021.0
20260509192010 70 319 1.7 5.2 0.00 0.00 0.00 55 1021.1
20260509191528 70 270 0.9 3.5 0.00 0.00 0.00 57 1021.2
20260509191014 70 340 1.7 5.2 0.00 0.00 0.00 58 1021.2
20260509190504 69 294 2.6 7.0 0.00 0.00 0.00 57 1021.3
20260509190017 69 334 4.3 7.0 0.00 0.00 0.00 55 1021.2
20260509185504 69 329 1.7 6.1 0.00 0.00 0.00 56 1021.3
20260509185007 69 335 3.5 6.1 0.00 0.00 0.00 58 1021.4
20260509184518 68 320 1.7 5.2 0.00 0.00 0.00 58 1021.5
20260509184009 68 329 0.9 5.2 0.00 0.00 0.00 60 1021.4
20260509183507 67 236 1.7 5.2 0.00 0.00 0.00 58 1021.5
20260509183027 67 285 2.6 7.0 0.00 0.00 0.00 62 1021.4
20260509182506 66 331 1.7 7.0 0.00 0.00 0.00 60 1021.4
20260509182011 66 286 1.7 7.0 0.00 0.00 0.00 62 1021.5
20260509181540 65 314 3.5 6.1 0.00 0.00 0.00 66 1021.5
20260509181007 64 205 1.7 6.1 0.00 0.00 0.00 63 1021.5
20260509180513 64 148 0.0 5.2 0.00 0.00 0.00 65 1021.5
20260509180028 64 150 3.5 5.2 0.00 0.00 0.00 64 1021.6
20260509175510 63 257 1.7 4.3 0.00 0.00 0.00 64 1021.6
20260509175009 63 161 2.6 5.2 0.00 0.00 0.00 64 1021.6
20260509174516 63 223 2.6 5.2 0.00 0.00 0.00 67 1021.7
20260509174007 63 184 1.7 5.2 0.00 0.00 0.00 65 1021.7
20260509173504 64 175 2.6 5.2 0.00 0.00 0.00 68 1021.8
20260509173025 63 178 1.7 4.3 0.00 0.00 0.00 65 1021.8
20260509172508 63 180 0.9 3.5 0.00 0.00 0.00 67 1021.7
20260509172008 63 53 1.7 4.3 0.00 0.00 0.00 66 1021.8
20260509171525 62 213 0.9 4.3 0.00 0.00 0.00 66 1021.8
20260509171002 62 190 2.6 4.3 0.00 0.00 0.00 65 1021.9
20260509170502 62 170 1.7 4.3 0.00 0.00 0.00 68 1021.9
20260509170008 62 175 1.7 3.5 0.00 0.00 0.00 70 1021.9
20260509165504 62 173 1.7 3.5 0.00 0.00 0.00 68 1022.0
20260509165006 61 176 0.9 2.6 0.00 0.00 0.00 68 1022.0
20260509164517 61 200 0.9 2.6 0.00 0.00 0.00 70 1022.1
20260509164007 61 231 0.9 3.5 0.00 0.00 0.00 71 1022.1
20260509163510 60 140 0.9 3.5 0.00 0.00 0.00 72 1022.3
20260509163028 60 294 0.9 1.7 0.00 0.00 0.00 75 1022.1
20260509162511 59 5 0.0 1.7 0.00 0.00 0.00 76 1022.3
20260509162003 58 13 0.0 1.7 0.00 0.00 0.00 77 1022.3
20260509161504 58 180 0.0 1.7 0.00 0.00 0.00 76 1022.4
20260509161005 57 202 0.9 1.7 0.00 0.00 0.00 76 1022.5
20260509160506 57 20 0.0 1.7 0.00 0.00 0.00 78 1022.5
20260509160009 56 95 0.0 2.6 0.00 0.00 0.00 78 1022.5
20260509155503 56 179 0.9 2.6 0.00 0.00 0.00 80 1022.5
20260509155003 55 184 0.9 2.6 0.00 0.00 0.00 81 1022.6
20260509154513 55 138 0.0 1.7 0.00 0.00 0.00 81 1022.6
20260509154007 54 170 0.0 1.7 0.00 0.00 0.00 82 1022.6
20260509153504 53 64 0.9 1.7 0.00 0.00 0.00 83 1022.5
20260509153018 53 83 0.9 2.6 0.00 0.00 0.00 84 1022.7
20260509152509 52 80 0.0 2.6 0.00 0.00 0.00 85 1022.7
20260509152010 52 205 0.9 1.7 0.00 0.00 0.00 86 1022.8
20260509151524 51 141 0.9 1.7 0.00 0.00 0.00 87 1022.8
20260509151001 51 95 0.9 1.7 0.00 0.00 0.00 87 1022.8
20260509150503 50 109 0.0 1.7 0.00 0.00 0.00 87 1022.8
20260509150013 50 150 0.0 1.7 0.00 0.00 0.00 88 1022.8
20260509145505 50 104 0.0 2.6 0.00 0.00 0.00 88 1022.9
20260509145003 49 138 1.7 2.6 0.00 0.00 0.00 88 1023.0
20260509144525 49 93 0.0 1.7 0.00 0.00 0.00 89 1022.9
20260509144004 49 65 0.0 1.7 0.00 0.00 0.00 89 1023.0
20260509143504 49 130 0.9 1.7 0.00 0.00 0.00 89 1023.1
20260509143018 48 93 0.0 1.7 0.00 0.00 0.00 90 1023.1
20260509142506 48 138 0.0 1.7 0.00 0.00 0.00 90 1023.1
20260509142008 48 137 0.0 0.9 0.00 0.00 0.00 90 1023.1
20260509141521 48 117 0.0 0.9 0.00 0.00 0.00 90 1023.0
20260509141012 48 111 0.0 1.7 0.00 0.00 0.00 90 1023.1
20260509140508 48 111 0.0 1.7 0.00 0.00 0.00 90 1023.2
20260509140026 47 137 0.0 1.7 0.00 0.00 0.00 90 1023.3
20260509135502 47 113 0.0 1.7 0.00 0.00 0.00 90 1023.3
20260509135003 47 121 0.0 1.7 0.00 0.00 0.00 90 1023.2
20260509134508 47 88 0.0 1.7 0.00 0.00 0.00 89 1023.1
20260509134005 47 93 0.9 1.7 0.00 0.00 0.00 89 1023.2
20260509133502 47 92 0.0 1.7 0.00 0.00 0.00 88 1023.2
20260509133014 47 92 0.0 1.7 0.00 0.00 0.00 88 1023.2
20260509132506 47 92 0.0 1.7 0.00 0.00 0.00 88 1023.2
20260509132007 47 92 0.0 1.7 0.00 0.00 0.00 87 1023.1
20260509131517 48 92 0.0 1.7 0.00 0.00 0.00 87 1023.1
20260509131011 48 92 0.0 0.0 0.00 0.00 0.00 87 1023.1
20260509130509 48 92 0.0 1.7 0.00 0.00 0.00 86 1023.0
20260509130024 48 92 0.0 1.7 0.00 0.00 0.00 86 1023.1
20260509125506 48 92 0.0 1.7 0.00 0.00 0.00 86 1023.1
20260509125010 48 92 0.0 1.7 0.00 0.00 0.00 86 1023.0
20260509124524 48 92 0.0 0.0 0.00 0.00 0.00 86 1023.0
20260509124004 48 92 0.0 0.0 0.00 0.00 0.00 85 1023.1
20260509123504 48 92 0.0 0.0 0.00 0.00 0.00 85 1023.0
20260509123009 49 92 0.0 0.0 0.00 0.00 0.00 85 1023.1
20260509122505 49 92 0.0 0.0 0.00 0.00 0.00 85 1023.2
20260509122005 49 92 0.0 1.7 0.00 0.00 0.00 85 1023.2
20260509121524 49 92 0.0 1.7 0.00 0.00 0.00 85 1023.2
20260509121007 49 92 0.0 0.0 0.00 0.00 0.00 86 1023.1
20260509120508 49 92 0.0 0.0 0.00 0.00 0.00 86 1023.1
20260509120022 49 92 0.0 0.0 0.00 0.00 0.00 86 1023.2
20260509115509 49 92 0.0 0.0 0.00 0.00 0.00 86 1023.2
20260509115009 49 92 0.0 1.7 0.00 0.00 0.00 86 1023.2
20260509114525 49 92 0.0 1.7 0.00 0.00 0.00 86 1023.2
20260509114006 49 92 0.0 1.7 0.00 0.00 0.00 86 1023.3
20260509113510 49 96 0.0 1.7 0.00 0.00 0.00 86 1023.2
20260509113024 49 96 0.0 1.7 0.00 0.00 0.00 85 1023.2
20260509112506 49 96 0.0 1.7 0.00 0.00 0.00 86 1023.3
20260509112006 50 115 0.0 1.7 0.00 0.00 0.00 85 1023.5
20260509111516 50 76 0.0 1.7 0.00 0.00 0.00 85 1023.5
20260509111007 50 76 0.0 1.7 0.00 0.00 0.00 85 1023.4
20260509110506 50 76 0.0 1.7 0.00 0.00 0.00 84 1023.4
20260509110017 50 76 0.0 1.7 0.00 0.00 0.00 84 1023.4
20260509105508 50 76 0.0 1.7 0.00 0.00 0.00 84 1023.5
20260509105006 50 69 0.0 1.7 0.00 0.00 0.00 84 1023.5
20260509104533 50 69 0.0 1.7 0.00 0.00 0.00 84 1023.5
20260509104009 50 81 0.0 1.7 0.00 0.00 0.00 84 1023.6
20260509103511 50 124 0.0 1.7 0.00 0.00 0.00 84 1023.6
20260509103026 50 123 0.0 1.7 0.00 0.00 0.00 84 1023.6
20260509102510 50 88 0.0 1.7 0.00 0.00 0.00 84 1023.5
20260509102012 50 88 0.0 1.7 0.00 0.00 0.00 83 1023.6
20260509101515 51 87 0.0 1.7 0.00 0.00 0.00 83 1023.7
20260509101009 51 57 0.0 1.7 0.00 0.00 0.00 83 1023.7
20260509100505 51 56 0.0 1.7 0.00 0.00 0.00 83 1023.7
20260509100020 51 57 0.0 1.7 0.00 0.00 0.00 83 1023.7
20260509095507 51 55 0.0 1.7 0.00 0.00 0.00 83 1023.7
20260509095007 51 55 0.0 1.7 0.00 0.00 0.00 82 1023.6
20260509094523 51 88 0.0 1.7 0.00 0.00 0.00 83 1023.7
20260509094007 51 118 0.0 1.7 0.00 0.00 0.00 82 1023.8
20260509093506 51 100 0.0 1.7 0.00 0.00 0.00 82 1023.8
20260509093038 51 98 0.0 1.7 0.00 0.00 0.00 82 1023.8
20260509092509 51 108 0.0 1.7 0.00 0.00 0.00 82 1023.7
20260509092011 51 123 0.0 1.7 0.00 0.00 0.00 82 1023.6
20260509091526 51 123 0.0 1.7 0.00 0.00 0.00 82 1023.7
20260509091008 51 130 0.0 1.7 0.00 0.00 0.00 82 1023.8
20260509090511 51 137 0.9 1.7 0.00 0.00 0.00 81 1023.8
20260509090018 51 96 0.0 1.7 0.00 0.00 0.00 81 1023.8
20260509085506 51 96 0.0 1.7 0.00 0.00 0.00 81 1023.8
20260509085006 51 114 0.0 1.7 0.00 0.00 0.00 81 1023.7
20260509084525 51 105 0.0 1.7 0.00 0.00 0.00 82 1023.8
20260509084007 52 96 0.0 1.7 0.00 0.00 0.00 82 1023.8
20260509083508 52 113 0.0 1.7 0.00 0.00 0.00 81 1023.8
20260509083026 52 94 0.0 1.7 0.00 0.00 0.00 81 1023.7
20260509082509 52 94 0.0 1.7 0.00 0.00 0.00 81 1023.7
20260509082011 52 90 0.0 1.7 0.00 0.00 0.00 80 1023.7
20260509081536 52 90 0.0 1.7 0.00 0.00 0.00 81 1023.7
20260509081006 52 90 0.0 1.7 0.00 0.00 0.00 80 1023.6
20260509080507 52 90 0.9 1.7 0.00 0.00 0.00 80 1023.6
20260509080026 52 93 0.0 1.7 0.00 0.00 0.00 80 1023.6
20260509075503 52 94 0.0 1.7 0.00 0.00 0.00 80 1023.6
20260509075007 52 94 0.0 1.7 0.00 0.00 0.00 79 1023.6
20260509074516 52 91 0.0 1.7 0.00 0.00 0.00 79 1023.5
20260509074010 52 91 0.0 1.7 0.00 0.00 0.00 78 1023.5
20260509073507 53 91 0.0 1.7 0.00 0.00 0.00 78 1023.5
20260509073004 53 91 0.0 1.7 0.00 0.00 0.00 78 1023.5
20260509072504 53 102 0.0 1.7 0.00 0.00 0.00 78 1023.5
20260509072002 53 102 0.0 1.7 0.00 0.00 0.00 77 1023.4
20260509071504 53 92 0.0 1.7 0.00 0.00 0.00 77 1023.4
20260509071003 53 91 0.0 1.7 0.00 0.00 0.00 77 1023.4
20260509070504 53 92 0.0 1.7 0.00 0.00 0.00 77 1023.3
20260509070012 53 91 0.0 1.7 0.00 0.00 0.00 77 1023.3
20260509065503 53 92 0.0 1.7 0.00 0.00 0.00 77 1023.3
20260509065007 54 111 0.0 1.7 0.00 0.00 0.00 77 1023.4
20260509064517 54 96 0.0 1.7 0.00 0.00 0.00 76 1023.3
20260509064008 54 79 0.0 1.7 0.00 0.00 0.00 76 1023.3
20260509063506 54 90 0.9 1.7 0.00 0.00 0.00 76 1023.2
20260509063019 54 91 0.0 1.7 0.00 0.00 0.00 76 1023.2
20260509062508 54 86 0.0 1.7 0.00 0.00 0.00 77 1023.2
20260509062011 54 86 0.0 1.7 0.00 0.00 0.00 76 1023.2
20260509061513 55 86 0.0 1.7 0.00 0.00 0.00 75 1023.2
20260509061005 55 86 0.0 1.7 0.00 0.00 0.00 75 1023.2
20260509060503 55 86 0.0 1.7 0.00 0.00 0.00 75 1023.1
20260509060010 55 86 0.0 0.0 0.00 0.00 0.00 75 1023.0
20260509055503 55 86 0.0 0.0 0.00 0.00 0.00 74 1023.0
20260509055003 55 86 0.0 0.0 0.00 0.00 0.00 74 1023.0
20260509054512 56 86 0.0 0.0 0.00 0.00 0.00 73 1023.0
20260509054006 56 86 0.0 1.7 0.00 0.00 0.00 73 1023.0
20260509053506 56 86 0.0 1.7 0.00 0.00 0.00 72 1023.0